Hilo, HI

2:50 PM HST on April 25, 2017 (GMT -1000)
Hilo International

Weather History for PHTO - February, 2014

Change the Weather History Date:

Monday, February 17, 2014

  Actual Average Record
Temperature  
Mean Temperature 73 °F 71 °F  
Max Temperature 77 °F 79 °F 89 °F (1995)
Min Temperature 68 °F 64 °F 57 °F (1957)
Degree Days  
Heating Degree Days 0 0  
Month to date heating degree days 0 0  
Since 1 July heating degree days 0 0  
Cooling Degree Days 8 6  
Month to date cooling degree days 159 102  
Year to date cooling degree days 371 300  
Growing Degree Days 20 (Base 50)    
Moisture  
Dew Point 69 °F    
Average Humidity 90    
Maximum Humidity 100    
Minimum Humidity 79    
Precipitation  
Precipitation 0.63 in 0.33 in 8.63 in (1951)
Month to date precipitation 2.21 5.71  
Year to date precipitation 7.87 14.97  
Snow  
Snow 0.00 in - - ()
Month to date snowfall 0.0  
Since 1 July snowfall 0.0  
Snow Depth 0.00 in    
Sea Level Pressure  
Sea Level Pressure 29.93 in    
Wind  
Wind Speed 6 mph (South)    
Max Wind Speed 15 mph    
Max Gust Speed 19 mph    
Visibility 8 miles    
Events Rain    
T = Trace of Precipitation, MM = Missing Value Source: NWS Daily Summary

Daily Weather History Graph

Daily Weather History Graph

Search for Another Location

Airport or City:

Trip Planner

Search our weather history database for the weather conditions in past years. The results will help you decide how hot, cold, wet, or windy it might be!

Date:

Astronomy

Feb. 17, 2014 Rise Set
Actual Time 6:47 AM HST 6:20 PM HST
Civil Twilight 6:25 AM HST 6:43 PM HST
Nautical Twilight 5:59 AM HST 7:09 PM HST
Astronomical Twilight 5:33 AM HST 7:34 PM HST
Moon 8:54 PM HST (2/17) 8:21 AM HST (2/17)
Length of Visible Light 12h 17m
Length of Day
11h 33m
Waning Gibbous, 92% of the Moon is Illuminated
Feb 17
Waning Gibbous
Feb 22
Last Quarter
Feb 28
New
Mar 8
First Quarter
Mar 16
Full

Hourly Weather History & Observations

Time (HST) Temp. Dew Point Humidity Pressure Visibility Wind Dir Wind Speed Gust Speed Precip Events Conditions
12:53 AM 73.0 °F 68.0 °F 84% 29.94 in 10.0 mi South 5.8 mph - N/A   Mostly Cloudy
1:53 AM 73.0 °F 69.1 °F 87% 29.91 in 10.0 mi South 6.9 mph - N/A   Clear
2:53 AM 72.0 °F 69.1 °F 91% 29.91 in 10.0 mi SW 4.6 mph - N/A   Partly Cloudy
3:53 AM 72.0 °F 68.0 °F 87% 29.91 in 10.0 mi Calm Calm - N/A   Overcast
4:08 AM 71.1 °F 69.1 °F 93% 29.92 in 10.0 mi Calm Calm - N/A   Overcast
4:43 AM 71.1 °F 68.0 °F 90% 29.92 in 10.0 mi ESE 4.6 mph - N/A   Mostly Cloudy
4:53 AM 71.1 °F 69.1 °F 93% 29.92 in 10.0 mi SE 3.5 mph - N/A   Scattered Clouds
5:53 AM 70.0 °F 66.9 °F 90% 29.93 in 10.0 mi Calm Calm - 0.00 in   Partly Cloudy
6:53 AM 69.1 °F 66.9 °F 93% 29.94 in 10.0 mi SW 4.6 mph - 0.00 in Rain Light Rain
7:53 AM 71.1 °F 68.0 °F 90% 29.94 in 10.0 mi SSW 5.8 mph - 0.00 in Rain Light Rain
8:53 AM 73.9 °F 70.0 °F 87% 29.95 in 10.0 mi SSW 5.8 mph - 0.00 in   Overcast
9:53 AM 75.9 °F 72.0 °F 87% 29.95 in 10.0 mi SSW 3.5 mph - N/A   Overcast
10:13 AM 75.9 °F 72.0 °F 87% 29.95 in 10.0 mi SSE 4.6 mph - N/A   Overcast
10:40 AM 75.9 °F 71.1 °F 85% 29.95 in 10.0 mi SSE 8.1 mph - N/A   Overcast
10:53 AM 75.0 °F 71.1 °F 87% 29.94 in 10.0 mi South 6.9 mph - N/A   Overcast
11:53 AM 75.0 °F 72.0 °F 90% 29.93 in 10.0 mi SSW 5.8 mph - 0.00 in Rain Light Rain
12:03 PM 73.9 °F 72.0 °F 93% 29.93 in 6.0 mi SSW 9.2 mph - 0.00 in Rain Light Rain
12:11 PM 73.9 °F 72.0 °F 93% 29.92 in 6.0 mi SW 4.6 mph - 0.00 in Rain Light Rain
12:46 PM 73.9 °F 72.0 °F 93% 29.92 in 5.0 mi South 8.1 mph - 0.00 in Rain Light Rain
12:53 PM 73.0 °F 72.0 °F 96% 29.92 in 5.0 mi SSW 5.8 mph 17.3 mph 0.01 in Rain Rain
1:09 PM 72.0 °F 71.1 °F 97% 29.91 in 1.8 mi SSW 6.9 mph - 0.06 in Rain Heavy Rain
1:30 PM 72.0 °F 71.1 °F 97% 29.91 in 2.0 mi SSW 5.8 mph - 0.15 in Rain Light Rain
1:53 PM 72.0 °F 71.1 °F 97% 29.89 in 7.0 mi SSE 6.9 mph - 0.17 in Rain Light Rain
2:53 PM 73.0 °F 71.1 °F 93% 29.89 in 8.0 mi SSE 6.9 mph - 0.01 in Rain Light Rain
3:35 PM 72.0 °F 70.0 °F 93% 29.90 in 8.0 mi South 4.6 mph - 0.03 in Rain Light Rain
3:53 PM 72.0 °F 71.1 °F 97% 29.91 in 8.0 mi South 3.5 mph - 0.04 in Rain Rain
4:53 PM 71.1 °F 70.0 °F 96% 29.93 in 5.0 mi South 5.8 mph - 0.11 in Rain Rain
5:53 PM 70.0 °F 70.0 °F 100% 29.96 in 4.0 mi SSW 3.5 mph - 0.18 in Rain Rain
6:53 PM 69.1 °F 66.9 °F 93% 29.97 in 10.0 mi SSW 6.9 mph - 0.06 in Rain Light Rain
7:53 PM 68.0 °F 68.0 °F 100% 29.98 in 10.0 mi SSW 5.8 mph - 0.04 in Rain Light Rain
8:53 PM 70.0 °F 66.9 °F 90% 29.99 in 10.0 mi SSW 8.1 mph - 0.01 in Rain Light Rain
9:53 PM 71.1 °F 64.9 °F 81% 29.95 in 10.0 mi SW 12.7 mph - 0.00 in   Overcast
10:53 PM 70.0 °F 64.0 °F 81% 29.92 in 10.0 mi SW 6.9 mph - 0.00 in   Mostly Cloudy
11:53 PM 71.1 °F 64.0 °F 78% 29.86 in 10.0 mi South 9.2 mph - N/A   Scattered Clouds